This is the latest recevied weather packets stored in our database for station/object KY0TEQ-13. If no packets are shown the sender has not sent any weather packets the latest 10 day(s).
| Time | Temp. | Humidity | Pressure | Rain* | Wind** | Luminosity | Snow |
|---|---|---|---|---|---|---|---|
| 1788220259 | 16.11° C | 71% | 1311.6 hPa | 0 mm | - | 47 W/m² | - |
| 1788219958 | 16.11° C | 72% | 1311.3 hPa | 0 mm | - | 64 W/m² | - |
| 1788219663 | 16.11° C | 70% | 1311.2 hPa | 0 mm | - | 99 W/m² | - |
| 1788219349 | 16.11° C | 72% | 1311.1 hPa | 0 mm | - | 144 W/m² | - |
| 1788219045 | 16.11° C | 71% | 1311 hPa | 0 mm | - | 154 W/m² | - |
| 1788218755 | 16.11° C | 72% | 1311.1 hPa | 0 mm | - | 135 W/m² | - |
| 1788218436 | 16.11° C | 74% | 1311 hPa | 0 mm | - | 157 W/m² | - |
| 1788218132 | 16.11° C | 75% | 1311.2 hPa | 0 mm | - | 161 W/m² | - |
| 1788217828 | 15.56° C | 75% | 1311.3 hPa | 0 mm | - | 99 W/m² | - |
| 1788217522 | 16.67° C | 74% | 1311.4 hPa | 0 mm | - | 127 W/m² | - |
| 1788217217 | 16.67° C | 73% | 1311.7 hPa | 0 mm | - | 178 W/m² | - |
| 1788216913 | 16.11° C | 69% | 1311.7 hPa | 0 mm | - | 139 W/m² | - |
| 1788216613 | 16.11° C | 72% | 1311.6 hPa | 0 mm | - | 112 W/m² | - |
| 1788216308 | 16.11° C | 74% | 1311.7 hPa | 0 mm | - | 128 W/m² | - |
| 1788216021 | 16.11° C | 74% | 1311.7 hPa | 0 mm | - | 113 W/m² | - |
| 1788215698 | 16.11° C | 77% | 1311.6 hPa | 0 mm | - | 162 W/m² | - |
| 1788215394 | 15.56° C | 74% | 1311.8 hPa | 0 mm | - | 173 W/m² | - |
| 1788215090 | 15.56° C | 76% | 1311.6 hPa | 0 mm | - | 149 W/m² | - |
| 1788214789 | 15.56° C | 78% | 1311.6 hPa | 0 mm | - | 172 W/m² | - |
| 1788214485 | 15.56° C | 80% | 1311.3 hPa | 0 mm | - | 145 W/m² | - |
| 1788214181 | 15.56° C | 80% | 1311.3 hPa | 0 mm | - | 114 W/m² | - |
| 1788213876 | 15.56° C | 82% | 1311.4 hPa | 1.27 mm | - | 111 W/m² | - |
| 1788213571 | 15.56° C | 80% | 1311.9 hPa | 1.27 mm | - | 131 W/m² | - |
| 1788213266 | 16.11° C | 78% | 1312.3 hPa | 0 mm | - | 98 W/m² | - |
| 1788212962 | 15.56° C | 77% | 1312.4 hPa | 0 mm | - | 86 W/m² | - |
* Rain latest hour (hover to see other rain measurements)
** Current wind speed in m/s (hover to see current wind gust speed)